Voltar ao catálogo

STARLINK-31400

AtivoComunicaçõesVLEO
NORAD 59405·PAYLOAD·🇺🇸 United States

Lançado Apr 5, 2024 de Cape Canaveral Space Force Station

Loading…

Próximas Passagens (próximas 24 horas)

TLE

AtualizadoSource: CelesTrak SupGP

Época: Sep 14, 2026, 22:46 UTC

1 59405C 24064H   26257.94909722  .00053562  00000+0  19401-2 0  2577
2 59405  43.0024  67.0140 0001674 276.7905 105.8352 15.27549916    14

Acompanhe STARLINK-31400 em tempo real com AllMySat

Download on the App Store